Regional Weather Roundup
Issued by NWS

Home | Current Version | Previous Version | Text Only | Print | Product List | Glossary On
Versions: 1 2 3 4 5 6 7 8 9 10 11 12 13 14 15 16 17 18 19 20 21 22 23 24 25 26 27 28 29 30 31 32 33 34 35 36 37 38 39 40 41 42 43 44 45 46 47 48 49 50
000
ASUS43 KOAX 090202
RWRNE

WEATHER ROUNDUP FOR NEBRASKA
NATIONAL WEATHER SERVICE OMAHA NE
800 PM CST THU DEC 08 2016

NOTES: SATELLITE DATA IS BEING USED TO AUGMENT CLOUD COVER ABOVE
       12000 FEET.
       "FAIR" INDICATES FEW OR NO CLOUDS BELOW 12,000 FEET WITH NO
       SIGNIFICANT WEATHER AND/OR OBSTRUCTIONS TO VISIBILITY.

  * THESE STATIONS DO NOT REPORT WEATHER SUCH AS RAIN...SNOW OR FOG.

NEZ001>004-019>022-054>056-090300-
NEBRASKA PANHANDLE

CITY           SKY/WX    TMP DP  RH WIND       PRES   REMARKS
SCOTTSBLUFF    CLOUDY     4  -4  69 E7        30.37S WCI  -8
ALLIANCE       CLOUDY     0  -5  79 SE8       30.38S WCI -14
CHADRON        CLOUDY     0  -7  72 N5        30.43F WCI -10
KIMBALL        CLOUDY     3   0  84 S8        30.30S WCI -10
SIDNEY         CLOUDY    -1  -6  79 S8        30.37S WCI -15
$$

NEZ057>060-069>072-079>082-090300-
SOUTHWEST NEBRASKA

CITY           SKY/WX    TMP DP  RH WIND       PRES   REMARKS
NORTH PLATTE   CLEAR      4  -2  76 E3        30.53F
IMPERIAL       CLOUDY     3  -3  76 SE7       30.49F WCI  -9
LEXINGTON      CLEAR     10   1  68 SW3       30.57F
MCCOOK         CLOUDY     6   0  76 SW3       30.56F
$$

NEZ005>010-023>029-035>040-094-090300-
NORTH CENTRAL NEBRASKA

CITY           SKY/WX    TMP DP  RH WIND       PRES   REMARKS
VALENTINE      CLEAR      3  -5  69 N5        30.54F WCI  -6
AINSWORTH      CLEAR      4  -3  73 CALM      30.55F
BROKEN BOW     CLEAR      5  -3  69 N5        30.55S WCI  -4
O`NEILL        CLEAR      6   0  75 NW6       30.60S WCI  -4
ORD            CLEAR      4  -4  69 NW6       30.59R WCI  -7
$$

NEZ041-046>049-061>064-073>077-083>087-090300-
SOUTH CENTRAL NEBRASKA

CITY           SKY/WX    TMP DP  RH WIND       PRES   REMARKS
GRAND ISLAND   CLEAR     11   3  70 NW3       30.61R
AURORA         CLEAR      9   1  70 CALM      30.61S
HASTINGS       CLEAR     10   2  69 CALM      30.61S
HEBRON         CLEAR     13   6  76 CALM      30.64S
HOLDREGE       CLEAR     11   2  68 W3        30.58S
KEARNEY *      CLEAR     14   0  52 CALM      30.60R
YORK             N/A     12   5  73 CALM      30.62S
$$

NEZ011>018-030>034-042>045-090300-
NORTHEAST NEBRASKA

CITY           SKY/WX    TMP DP  RH WIND       PRES   REMARKS
NORFOLK        CLEAR      9   1  70 W7        30.62R WCI  -2
ALBION         CLEAR     10   1  68 NW7       30.61S WCI  -1
BLAIR          CLEAR     17   8  68 NW8       30.61S WCI   7
FREMONT        CLEAR     12   6  76 NW6       30.64R WCI   3
TEKAMAH        CLEAR     16   6  65 NW10      30.64R WCI   4
WAYNE          CLEAR     10   4  75 W5        30.63R WCI   2
$$

NEZ050>053-065>068-078-088>093-090300-
SOUTHEAST NEBRASKA

CITY           SKY/WX    TMP DP  RH WIND       PRES   REMARKS
LINCOLN        CLEAR     18   6  59 NW5       30.66R WCI  11
OMAHA EPPLEY   CLEAR     16   7  67 NW8       30.64S WCI   5
BEATRICE       CLEAR     12   6  76 NW5       30.63S WCI   4
FALLS CITY     CLEAR     15   8  73 NW6       30.64R WCI   6
NEBRASKA CITY  CLEAR     17   6  60 NW8       30.63S WCI   7
$$

NEZ044-045-051>053-067-090300-
OMAHA AREA

CITY           SKY/WX    TMP DP  RH WIND       PRES   REMARKS
OMAHA EPPLEY   CLEAR     16   7  67 NW8       30.64S WCI   5
BLAIR          CLEAR     17   8  68 NW8       30.61S WCI   7
FREMONT        CLEAR     12   6  76 NW6       30.64R WCI   3
MILLARD        CLEAR     22  10  60 NW7       30.64S WCI  13
OFFUTT AFB     CLEAR     18   8  64 NW7       30.64R WCI   9
WAHOO          FAIR      16   8  69 NW9       30.64S WCI   4
$$



USA.gov is the U.S. government's official web portal to all federal, state and local government web resources and services.